Aeroporto :
LOGIN :

Iscrizione | Disclaimer

   EN    FR    IT 

 










Sommario :    VFR   VFR Marginale   IFR   IFR Intensivo   IFR Molto Intensivo
Visibilità : 
Base nubi : 
>= 8 km
>= 3000ft
5 / 8 km
1000 / 3000 ft
1500m / 5 km
500 / 1000 ft
800 / 1500m
200 / 500 ft
< 800m
< 200 ft
Simboli :   Temporali  Nebbia  Neve Forte  Precipitazioni Forti  Vento > 20 kt
SIGMETs :   Varie  Temporali  Ghiacco  Turbolenza  Onda orograficha  Ceneri Vulcaniche






- Altitudine del aeroporto : 1411 ft
- Codice IATA : ZHI


LSZG - Grenchen

ULTIMO METAR :
  • 121450Z 09014KT CAVOK 24/08 Q1023 NOSIG

METARs OBSOLETI :
  • 121420Z 09012KT CAVOK 24/08 Q1023 NOSIG
  • 121350Z 08011KT CAVOK 24/09 Q1023 NOSIG
  • 121320Z 08012KT CAVOK 24/08 Q1023 NOSIG
  • 121250Z 09011G24KT CAVOK 24/10 Q1023 NOSIG
  • 121220Z 08012KT 9999 FEW050 23/08 Q1023 NOSIG
  • 121150Z 10014KT 9999 FEW050 23/09 Q1023 NOSIG

TAF TAF LSZG
Valido dal 12 a 15 ore il 13 a 00 ore UTC


121425Z 1215/1224 08010G20KT CAVOK
ATIS : +41 32 396 96 33



MetMap, La meteo Aeronautica in un colpo d'occhio ! - Copyright ORBIFLY Dicembre 2007 - Disclaimer

ORBIFLY MET'MAP TEAM :

Programmazione e sviluppo : Alexandra Zaïnal
Concezione : Baudouin d'Aumeries
Aiuto per la programmazione : Marc-Olivier Méhu
Supporto tecnico e logistico : Manuel Goepfert
Aiuto per la traduzione : Arnaldo La Scala

Contatto : metmap@orbifly.com




FONTI E CREDITI :

   NOAA